Tracking 31027 objects as of 19-Jul-2025
HD Live streaming from Space Station
objects crossing your sky now

STARLINK-4564

Track STARLINK-4564 now!
10-day predictions
STARLINK-4564 is classified as:


NORAD ID: 53560
Int'l Code: 2022-101AK
Perigee: 546.0 km
Apogee: 547.8 km
Inclination: 53.2 °
Period: 95.4 minutes
Semi major axis: 6917 km
RCS: Unknown
Launch date: August 19, 2022
Source: United States (US)
Launch site: AIR FORCE EASTERN TEST RANGE (AFETR)
Your satellite tracking list
COSMOS 1656
Track 1 satellite(s)




NASA's NSSDC Master Catalog

Two Line Element Set (TLE):
1 53560U 22101AK  25199.53811567  .00000148  00000-0  27377-4 0  9990
2 53560  53.2188  25.4541 0001307  94.5916 265.5226 15.08834253161098
Source of the keplerian elements: AFSPC